Location: Newark
(44.2003°N, 3.2583°E)
Time: 06:42:37
(UTC+00:00)

Courier 1B Rocket - Pass Details

Date: 21 October 2019
Orbit: 920 x 1202 km, 28.2° (Epoch: 12 November)

Event Time Altitude Azimuth Distance (km) Brightness Sun altitude
Exits shadow 04:05:58 15° 198° (SSW) 2,237 6.6 -22.7°
Maximum altitude 04:07:56 18° 175° (S) 2,109 6.7 -22.3°
Drops below altitude 10° 04:11:57 10° 135° (SE) 2,636 7.7 -21.6°
Sets 04:15:30 0° 117° (ESE) 3,615 8.9 -21.0°
